DMSP 5D-2 F13 DEB, 42294

Orbit data source: Space-Track

DMSP 5D-2 F13 DEB, 42294 is space debris in SSO originally from a launch on Fri, 24 Mar 1995 UTC launched from the Air Force Western Test Range (AFWTR). Debris objects in space refer to the collection of defunct objects orbiting the Earth. Examples of debris include non-operational satellites, rocket bodies, and fragments generated from explosions, collisions, or faulty payload assembly.

Not visible in the next 10 days
Identifier
42294, 1995-015HL
Orbit
SSO
Country
Flag of USUS
Related business
Manufacturer
Unknown
Mission
Spacecraft
Bus & Motor
Unknown
Mass
Unknown
Launch date (UTC)
1995-03-24 (31 years ago)
Launch vehicle
Unknown
Launch site
Air Force Western Test Range (AFWTR)
Object type
Payload
Rocket body
Debris
Shape & HBR
Unknown shape, 0.1 m
Radar Cross Section
Small (<0.1 m²)

Expand to show TLE details & history
Last TLE update: 3 months ago

TLE from 3 months ago
0 DMSP 5D-2 F13 DEB
1 42294U 95015HL  26040.08772277  .00188804  00000-0  10466-1 0  9990
2 42294  98.8603  96.8879 0011773 223.0370 136.9936 15.12822218556331
Epoch: 2026-02-09T02:06Z
TLE epoch observation values (Epoch: 2026-02-09T02:06:19.247Z)
Latitude
-0.00011°
Longitude
-73.87985°
Altitude
536.584 km
Speed
7.591 km/s
True Right ascension
06h 27m 33s
True Declination
0° 00' 00"
Sunlit
Object was in full shadow at epoch
Visualization orbit readout
Latitude
Unknown
Longitude
Unknown
Altitude
Unknown
Speed
Unknown
Apparent Right ascension
Unknown
Apparent Declination
Unknown
Sunlit
N/A
Visualization observer readout
Local Sidereal Time
02:47:33
Azimuth
Unknown
Elevation
Unknown
Doppler factor
Unknown
Orbital elements
Apogee altitude
532.768 km
Perigee altitude
516.515 km
Semi-major axis
6,902.778 km
Eccentricity
0.00118
Inclination
98.8603°
RAAN
96.8879°
Arg. of periapsis
223.037°
True anomaly
137.08552°
Mean anomaly
136.9936°
Eccentric anomaly
137.03957°
Mean motion
3.78449 °/min
Orbital period
95.13 mins
BSTAR
0.010466

Documentation

Showing up to 5 results
|